Paynesville, MN

7:10 PM CST on February 07, 2016 (GMT -0600)
Paynesville

Weather History for KPEX - June, 2013

Change the Weather History Date:

Sunday, June 16, 2013

  Actual Average (KLJF) Record (KLJF)
Temperature  
Mean Temperature 69 °F -  
Max Temperature 86 °F 76 °F 91 °F (1971)
Min Temperature 52 °F 54 °F 42 °F (1972)
Cooling Degree Days 4    
Growing Degree Days 19 (Base 50)    
Moisture  
Dew Point 49 °F    
Average Humidity 57    
Maximum Humidity 85    
Minimum Humidity 18    
Precipitation  
Precipitation 0.09 in - - ()
Sea Level Pressure  
Sea Level Pressure 29.91 in    
Wind  
Wind Speed 7 mph (West)    
Max Wind Speed 22 mph    
Max Gust Speed 47 mph    
Visibility 10 miles    
Events Rain , Thunderstorm    
Averages and records for this station are not official NWS values.
T = Trace of Precipitation, MM = Missing Value Source: NWS Daily Summary

Daily Weather History Graph

Daily Weather History Graph

Search for Another Location

Airport or City:

Trip Planner

Search our weather history database for the weather conditions in past years. The results will help you decide how hot, cold, wet, or windy it might be!

Date:

Astronomy

Jun. 16, 2013 Rise Set
Actual Time 5:30 AM CDT 9:09 PM CDT
Civil Twilight 4:52 AM CDT 9:47 PM CDT
Nautical Twilight 4:01 AM CDT 10:37 PM CDT
Astronomical Twilight 2:54 AM CDT 11:45 PM CDT
Moon 1:28 PM CDT (6/16) 12:55 AM CDT (6/16)
Length of Visible Light 16h 54m
Length of Day
15h 39m
Waxing Crescent, 50% of the Moon is Illuminated
Jun 16
Waxing Crescent
Jun 16
First Quarter
Jun 23
Full
Jun 29
Last Quarter
Jul 8
New

Hourly Weather History & Observations

Time (CDT) Temp. Dew Point Humidity Pressure Visibility Wind Dir Wind Speed Gust Speed Precip Events Conditions
12:13 AM 59.4 °F 48.4 °F 67% 29.91 in 10.0 mi West 3.5 mph - N/A   Clear
12:33 AM 58.6 °F 49.1 °F 71% 29.91 in 10.0 mi Calm Calm - N/A   Clear
12:53 AM 58.8 °F 48.4 °F 68% 29.91 in 10.0 mi WSW 4.6 mph - N/A   Clear
1:13 AM 56.7 °F 48.6 °F 74% 29.91 in 10.0 mi West 4.6 mph - N/A   Clear
1:33 AM 56.3 °F 48.7 °F 76% 29.91 in 10.0 mi West 3.5 mph - N/A   Clear
1:53 AM 56.5 °F 48.6 °F 75% 29.91 in 10.0 mi Calm Calm - N/A   Clear
2:13 AM 55.9 °F 49.1 °F 78% 29.91 in 10.0 mi WSW 3.5 mph - N/A   Clear
2:32 AM 55.6 °F 48.6 °F 77% 29.91 in 10.0 mi WSW 4.6 mph - N/A   Clear
2:53 AM 54.9 °F 48.2 °F 78% 29.91 in 10.0 mi West 3.5 mph - N/A   Clear
3:13 AM 54.5 °F 48.4 °F 80% 29.91 in 10.0 mi WSW 4.6 mph - N/A   Clear
3:33 AM 54.0 °F 48.2 °F 81% 29.91 in 10.0 mi West 4.6 mph - N/A   Clear
3:52 AM 53.2 °F 47.8 °F 82% 29.91 in 10.0 mi West 4.6 mph - N/A   Clear
4:13 AM 53.8 °F 48.2 °F 81% 29.91 in 10.0 mi WSW 3.5 mph - N/A   Clear
4:33 AM 53.8 °F 47.8 °F 80% 29.91 in 10.0 mi WSW 4.6 mph - N/A   Clear
4:53 AM 52.7 °F 47.8 °F 84% 29.92 in 10.0 mi WSW 4.6 mph - N/A   Clear
5:12 AM 52.9 °F 47.7 °F 82% 29.93 in 10.0 mi West 3.5 mph - N/A   Clear
5:33 AM 52.0 °F 47.5 °F 85% 29.94 in 10.0 mi WSW 3.5 mph - N/A   Clear
5:53 AM 53.2 °F 47.7 °F 81% 29.93 in 10.0 mi West 3.5 mph - N/A   Clear
6:13 AM 54.3 °F 49.1 °F 83% 29.94 in 10.0 mi WSW 4.6 mph - N/A   Clear
6:33 AM 55.0 °F 49.3 °F 81% 29.94 in 10.0 mi West 3.5 mph - N/A   Clear
6:53 AM 57.2 °F 50.9 °F 79% 29.94 in 10.0 mi West 3.5 mph - N/A   Clear
7:13 AM 59.7 °F 51.4 °F 74% 29.94 in 10.0 mi West 4.6 mph - N/A   Clear
7:33 AM 62.2 °F 52.2 °F 70% 29.94 in 10.0 mi West 4.6 mph - N/A   Clear
7:53 AM 64.6 °F 51.4 °F 62% 29.94 in 10.0 mi West 6.9 mph - N/A   Clear
8:13 AM 67.5 °F 51.6 °F 57% 29.94 in 10.0 mi West 6.9 mph - N/A   Clear
8:32 AM 69.1 °F 50.2 °F 51% 29.94 in 10.0 mi West 6.9 mph - N/A   Clear
8:53 AM 71.1 °F 51.1 °F 49% 29.94 in 10.0 mi West 6.9 mph - N/A   Clear
9:13 AM 72.9 °F 50.4 °F 45% 29.95 in 10.0 mi West 6.9 mph - N/A   Clear
9:33 AM 75.2 °F 47.7 °F 38% 29.94 in 10.0 mi West 11.5 mph - N/A   Clear
9:53 AM 77.0 °F 45.3 °F 32% 29.94 in 10.0 mi West 16.1 mph - N/A   Clear
10:13 AM 77.9 °F 46.6 °F 33% 29.94 in 10.0 mi WSW 13.8 mph 18.4 mph N/A   Clear
10:33 AM 78.8 °F 43.9 °F 29% 29.94 in 10.0 mi West 16.1 mph 19.6 mph N/A   Clear
10:52 AM 79.2 °F 42.1 °F 27% 29.94 in 10.0 mi WSW 16.1 mph 19.6 mph N/A   Clear
11:13 AM 80.1 °F 41.0 °F 25% 29.93 in 10.0 mi West 12.7 mph - N/A   Clear
11:33 AM 80.1 °F 41.0 °F 25% 29.92 in 10.0 mi West 13.8 mph 20.7 mph N/A   Clear
11:53 AM 81.5 °F 41.5 °F 24% 29.92 in 10.0 mi WNW 15.0 mph 19.6 mph N/A   Clear
12:13 PM 81.5 °F 41.7 °F 24% 29.92 in 10.0 mi West 15.0 mph 25.3 mph N/A   Clear
12:33 PM 83.1 °F 41.0 °F 22% 29.91 in 10.0 mi West 18.4 mph 24.2 mph N/A   Scattered Clouds
12:53 PM 82.9 °F 40.6 °F 22% 29.91 in 10.0 mi WNW 16.1 mph 20.7 mph N/A   Scattered Clouds
1:13 PM 84.2 °F 40.6 °F 21% 29.91 in 10.0 mi West 20.7 mph 25.3 mph N/A   Scattered Clouds
1:33 PM 84.6 °F 38.5 °F 19% 29.91 in 10.0 mi WNW 11.5 mph 33.4 mph N/A   Scattered Clouds
1:53 PM 85.1 °F 37.6 °F 18% 29.91 in 10.0 mi West 21.9 mph 28.8 mph N/A   Scattered Clouds
2:13 PM 84.2 °F 38.3 °F 20% 29.91 in 10.0 mi West 15.0 mph 23.0 mph N/A   Scattered Clouds
2:33 PM 85.1 °F 38.3 °F 19% 29.91 in 10.0 mi West 15.0 mph 23.0 mph N/A   Scattered Clouds
2:52 PM 84.4 °F 38.8 °F 20% 29.91 in 10.0 mi West 17.3 mph 21.9 mph N/A   Scattered Clouds
3:13 PM 84.2 °F 39.4 °F 20% 29.90 in 10.0 mi WSW 15.0 mph 27.6 mph N/A   Scattered Clouds
3:33 PM 85.6 °F 41.2 °F 21% 29.90 in 10.0 mi West 16.1 mph 24.2 mph N/A   Scattered Clouds
3:53 PM 86.0 °F 42.3 °F 21% 29.89 in 10.0 mi West 19.6 mph 26.5 mph N/A   Scattered Clouds
4:13 PM 83.3 °F 43.2 °F 24% 29.88 in 10.0 mi West 18.4 mph 23.0 mph N/A   Scattered Clouds
4:33 PM 76.1 °F 50.0 °F 40% 29.91 in 7.0 mi West 17.3 mph 47.2 mph 0.03 in Rain , Thunderstorm Rain
4:53 PM 70.0 °F 55.9 °F 61% 29.94 in 7.0 mi West 21.9 mph 31.1 mph 0.06 in Rain , Thunderstorm Rain
5:13 PM 66.2 °F 56.8 °F 72% 29.92 in 10.0 mi SW 15.0 mph 21.9 mph 0.02 in Rain Light Rain
5:33 PM 68.4 °F 54.3 °F 61% 29.94 in 10.0 mi WNW 19.6 mph 41.4 mph 0.02 in Rain , Thunderstorm Light Thunderstorms and Rain
5:53 PM 68.5 °F 57.6 °F 68% 29.90 in 10.0 mi West 4.6 mph - 0.03 in Rain Light Rain
6:13 PM 69.8 °F 58.8 °F 68% 29.89 in 10.0 mi Calm Calm - N/A   Scattered Clouds
6:33 PM 72.5 °F 58.6 °F 62% 29.89 in 10.0 mi WSW 3.5 mph - N/A   Clear
6:53 PM 74.1 °F 58.3 °F 58% 29.88 in 10.0 mi WSW 4.6 mph - N/A   Clear
7:12 PM 74.5 °F 58.6 °F 58% 29.88 in 10.0 mi WSW 5.8 mph - N/A   Clear
7:33 PM 73.9 °F 58.3 °F 58% 29.87 in 10.0 mi SW 4.6 mph - N/A   Clear
7:53 PM 73.6 °F 58.6 °F 59% 29.87 in 10.0 mi SW 3.5 mph - N/A   Clear
8:13 PM 73.4 °F 59.0 °F 61% 29.86 in 10.0 mi SW 3.5 mph - N/A   Clear
8:33 PM 71.8 °F 58.6 °F 63% 29.86 in 10.0 mi Calm Calm - N/A   Clear
8:53 PM 70.7 °F 59.2 °F 67% 29.86 in 10.0 mi Calm Calm - N/A   Clear
9:13 PM 68.0 °F 60.8 °F 78% 29.86 in 10.0 mi Calm Calm - N/A   Clear
9:33 PM 65.3 °F 59.7 °F 82% 29.87 in 10.0 mi WSW 3.5 mph - N/A   Clear
9:53 PM 65.1 °F 57.4 °F 76% 29.88 in 10.0 mi West 4.6 mph - N/A   Clear
10:13 PM 63.9 °F 57.0 °F 78% 29.89 in 10.0 mi WSW 5.8 mph - N/A   Clear
10:33 PM 64.4 °F 56.3 °F 75% 29.89 in 10.0 mi West 4.6 mph - N/A   Clear
10:53 PM 64.2 °F 55.8 °F 74% 29.89 in 10.0 mi West 5.8 mph - N/A   Clear
11:13 PM 63.3 °F 55.6 °F 76% 29.89 in 10.0 mi West 5.8 mph - N/A   Clear
11:33 PM 62.1 °F 55.8 °F 80% 29.89 in 10.0 mi Calm Calm - N/A   Clear
11:53 PM 61.7 °F 55.4 °F 80% 29.90 in 10.0 mi West 6.9 mph - N/A   Clear